Flag for U.S.A. Weather past 2 weeks in Escondido, California, U.S.A.

Now
74 °F

Sunny.


Feels Like: 77 °F
Forecast: 62 / 79 °F
Wind: 8 mph from West

Location: Ramona Airport

Current Time: Sep 1, 2015 at 5:37:21 PM

Latest Report: Sep 1, 2015 at 4:53 PM


Visibility: 10 mi

Pressure: 29.88 "Hg

Humidity: 62%

Dew point: 60 °F

Location of EscondidoLocation

Historic Weather in Escondido — Graph

°F

Escondido temperature yesterday

Maximum temperature yesterday: 86 °F (at 12:53 PM)
Minimum temperature yesterday: 57 °F (at 4:59 AM)
Average temperature yesterday: 70 °F

Past Weeks' High & Low Weather Summary

 TemperatureHumidityPressure
High100 °F (Aug 28, 11:53 AM)100% (Aug 23, 6:53 AM)30.01 "Hg (Aug 23, 6:53 AM)
Low55 °F (Aug 19, 4:53 AM)17% (Aug 28, 11:53 AM)29.81 "Hg (Aug 20, 4:53 PM)
Average74 °F62%29.89 "Hg
* Reported Aug 17 3:53 PM — Sep 1 3:53 PM, Escondido, Weather by CustomWeather, © 2015

Note: Actual official high and low records may vary slightly from our data, if they occured in-between our weather recording intervals... More about our weather records

Advertising

Escondido weather history for previous 24 hours

 ConditionsComfort  
Time TempWeatherWind HumidityBarometerVisibility
3:53 PM
Tue, Sep 1
75 °FSunny.8 mph60%29.88 "Hg10 mi
1:53 PM83 °FSunny.9 mph41%29.88 "Hg10 mi
12:53 PM80 °FSunny.7 mph45%29.89 "Hg10 mi
11:53 AM79 °FSunny.N/A48%29.90 "Hg10 mi
10:53 AM75 °FSunny.5 mph55%29.92 "Hg10 mi
9:53 AM71 °FSunny.6 mph63%29.93 "Hg10 mi
8:53 AM67 °FSunny.No wind71%29.92 "Hg10 mi
7:53 AM64 °FPartly sunny.No wind78%29.92 "Hg8 mi
6:53 AM63 °FOvercast.No wind81%29.91 "Hg9 mi
5:53 AM63 °FOvercast.No wind84%29.89 "Hg10 mi
4:53 AM63 °FLow clouds.3 mph84%29.89 "Hg10 mi
3:53 AM63 °FLow clouds.6 mph87%29.88 "Hg8 mi
2:53 AM63 °FLow clouds.3 mph87%29.89 "Hg7 mi
1:53 AM63 °FFog.No wind90%29.90 "Hg6 mi
12:53 AM61 °FLow clouds.No wind90%29.90 "Hg9 mi
11:53 PM
Mon, Aug 31
62 °FPassing clouds.No wind86%29.90 "Hg8 mi
10:53 PM62 °FClear.3 mph86%29.90 "Hg10 mi
9:53 PM63 °FClear.No wind87%29.90 "Hg10 mi
8:53 PM65 °FClear.3 mph81%29.88 "Hg10 mi
7:53 PM68 °FSunny.5 mph73%29.87 "Hg10 mi
6:53 PM72 °FSunny.7 mph66%29.85 "Hg10 mi
5:53 PM78 °FSunny.13 mph52%29.84 "Hg10 mi
Weather by CustomWeather, © 2015

See weather overviewHow to use our weather pages